This demonstration page uses our WeatherBlox Daily Observations layout. Learn more.

Left ArrowRight Arrow

Hourly Observations for November 3, 2015

Temp ( °F °C ) Dew Point ( °F °C ) Humidity (%) Winds ( mph kmh ) Pressure ( in mb ) Visibility ( mi km ) Precip ( " mm )
12:53 am 00:53 Clear 54 12.2 46 7.8 75 75 S 7 11 29.82 1010 10 16 0.00 0.00
1:53 am 01:53 Clear 53 11.7 47 8.3 80 80 SSE 8 13 29.82 1010 10 16 0.00 0.00
2:53 am 02:53 Clear 52 11.1 47 8.3 83 83 SSE 9 15 29.81 1009 10 16 0.00 0.00
3:53 am 03:53 Clear 50 10 47 8.3 89 89 SSE 10 17 29.80 1009 10 16 0.00 0.00
4:53 am 04:53 Clear 49 9.4 46 7.8 90 90 SSE 8 13 29.79 1009 10 16 0.00 0.00
5:53 am 05:53 Clear 49 9.4 46 7.8 90 90 S 9 15 29.80 1009 10 16 0.00 0.00
6:53 am 06:53 Clear 48 8.9 46 7.8 93 93 SSE 9 15 29.79 1009 8 13 0.00 0.00
7:50 am 07:50 Partly Cloudy with Mist and Fog 48 9 46 8 94 94 S 13 20 29.80 1009 5 8 0.00 0.00
7:53 am 07:53 Partly Cloudy with Mist and Fog 49 9.4 47 8.3 93 93 S 13 20 29.80 1009 4 6 0.00 0.00
8:53 am 08:53 Cloudy with Mist and Fog 52 11.1 50 10 93 93 S 12 19 29.81 1010 5 8 0.00 0.00
9:27 am 09:27 Partly Cloudy 55 12.8 51 10.6 87 87 S 15 24 29.80 1009 8 13 0.00 0.00
9:53 am 09:53 Sunny 57 13.9 51 10.6 81 81 S 12 19 29.81 1009 10 16 0.00 0.00
10:53 am 10:53 Sunny 62 16.7 51 10.6 67 67 S 14 22 29.79 1009 10 16 0.00 0.00
11:53 am 11:53 Sunny 66 18.9 51 10.6 59 59 S 14 22 29.77 1008 10 16 0.00 0.00
12:53 pm 12:53 Sunny 70 21.1 51 10.6 51 51 S 16 26 29.75 1007 10 16 0.00 0.00
1:53 pm 13:53 Sunny 73 22.8 51 10.6 46 46 S 16 26 29.72 1007 10 16 0.00 0.00
2:53 pm 14:53 Sunny 76 24.4 49 9.4 39 39 S 18 30 29.71 1006 10 16 0.00 0.00
3:53 pm 15:53 Sunny 76 24.4 49 9.4 39 39 S 17 28 29.71 1006 10 16 0.00 0.00
4:53 pm 16:53 Sunny 73 22.8 50 10 44 44 SSE 15 24 29.72 1007 10 16 0.00 0.00
5:53 pm 17:53 Clear 69 20.6 49 9.4 49 49 SSE 13 20 29.72 1007 10 16 0.00 0.00
6:53 pm 18:53 Clear 68 20 50 10 53 53 S 16 26 29.74 1007 10 16 0.00 0.00
7:53 pm 19:53 Clear 66 18.9 52 11.1 61 61 S 17 28 29.75 1008 10 16 0.00 0.00
8:53 pm 20:53 Clear 64 17.8 53 11.7 68 68 S 15 24 29.77 1008 10 16 0.00 0.00
9:53 pm 21:53 Clear 63 17.2 53 11.7 70 70 S 15 24 29.77 1008 10 16 0.00 0.00
11:53 pm 23:53 Clear 60 15.6 53 11.7 78 78 S 12 19 29.77 1008 10 16 0.00 0.00

Powered by AerisWeather